Location: Biharia
(46.4333°N, 22.8000°E)
Time: 23:15:36
(UTC+00:00)

Cosmos 1626 Rocket - Pass Details

Date: 16 October 2021
Orbit: 602 x 631 km, 82.5° (Epoch: 26 November)

Event Time Altitude Azimuth Distance (km) Brightness Sun altitude
Rises 17:44:26 0° 351° (N) 2,877 7.2 -22.1°
Reaches altitude 10° 17:46:40 10° 352° (N) 1,965 6.3 -22.5°
Maximum altitude 17:51:01 83° 80° (E) 615 3.3 -23.2°
Enters shadow 17:51:04 82° 95° (E) 616 3.3 -23.2°
